User: anonymous   Login
Location: Il Ritiro
(43.4167°N, 13.1333°E)
Time: 09:01:24
(UTC+00:00)
Language:

Cosmos 2074 Rocket - Orbit

View from above orbital plane
View from above orbital plane
View from above satellite
View from above satellite

Ground track
Ground track

The orbit data is extracted from the following two-line orbital elements,

1 20578U 90036B   20266.20354615  .00000069  00000-0  54719-4 0  9997
2 20578  82.9469 194.2050 0011440 238.2644 229.5148 13.76388424528071
Epoch (UTC): 22 September 2020 04:53:06
Eccentricity: 0.0011440
inclination: 82.9469°
perigee height: 968 km
apogee height: 985 km
right ascension of ascending node: 194.2050°
argument of perigee: 238.2644°
revolutions per day: 13.76388424
mean anomaly at epoch: 229.5148°
orbit number at epoch: 52807

The dashed part of the orbit path shows where the satellite is in the earth's shadow,  

DLR